This is the latest recevied weather packets stored in our database for station/object N7QNM-13. If no packets are shown the sender has not sent any weather packets the latest 10 day(s).
| Time | Temp. | Humidity | Pressure | Rain* | Wind** | Luminosity | Snow |
|---|---|---|---|---|---|---|---|
| 1777960869 | 18.89° C | 51% | 1005.9 hPa | 0 mm | - | 0 W/m² | - |
| 1777960269 | 18.89° C | 53% | 1005.9 hPa | 0 mm | - | 0 W/m² | - |
| 1777957290 | 22.22° C | 44% | 1005.5 hPa | 0 mm | - | 0 W/m² | - |
| 1777956071 | 22.22° C | 45% | 1005.4 hPa | 0 mm | - | 0 W/m² | - |
| 1777954870 | 23.33° C | 41% | 1005 hPa | 0 mm | - | 0 W/m² | - |
| 1777951871 | 25.56° C | 34% | 1004.4 hPa | 0 mm | - | 1 W/m² | - |
| 1777950071 | 26.11° C | 32% | 1004.2 hPa | 0 mm | - | 11 W/m² | - |
| 1777949472 | 27.22° C | 32% | 1004.1 hPa | 0 mm | - | 16 W/m² | - |
| 1777942873 | 32.78° C | 27% | 1004.5 hPa | 0 mm | - | 261 W/m² | - |
| 1777938074 | 31.11° C | 28% | 1004.7 hPa | 0 mm | - | 493 W/m² | - |
| 1777930275 | 30.56° C | 28% | 1006.1 hPa | 0 mm | - | 785 W/m² | - |
| 1777926076 | 30.56° C | 32% | 1006.9 hPa | 0 mm | - | 831 W/m² | - |
| 1777924296 | 29.44° C | 32% | 1007.2 hPa | 0 mm | - | 860 W/m² | - |
| 1777922478 | 28.89° C | 33% | 1007.3 hPa | 0 mm | - | 851 W/m² | - |
| 1777919477 | 27.78° C | 35% | 1007.7 hPa | 0 mm | - | 808 W/m² | - |
| 1777913419 | 23.33° C | 40% | 1008 hPa | 0 mm | - | 617 W/m² | - |
| 1777912839 | 22.78° C | 41% | 1008 hPa | 0 mm | - | 594 W/m² | - |
| 1777910420 | 21.11° C | 44% | 1008.2 hPa | 0 mm | - | 384 W/m² | - |
| 1777908619 | 20° C | 49% | 1008.4 hPa | 0 mm | - | 389 W/m² | - |
| 1777908020 | 19.44° C | 52% | 1008.4 hPa | 0 mm | - | 345 W/m² | - |
| 1777906820 | 18.33° C | 59% | 1008.5 hPa | 0 mm | - | 273 W/m² | - |
| 1777904420 | 14.44° C | 74% | 1008.3 hPa | 0 mm | - | 174 W/m² | - |
| 1777896622 | 9.44° C | 81% | 1007.3 hPa | 0 mm | - | 0 W/m² | - |
| 1777894822 | 10° C | 81% | 1007.6 hPa | 0 mm | - | 0 W/m² | - |
| 1777893622 | 10.56° C | 80% | 1007.6 hPa | 0 mm | - | 0 W/m² | - |
* Rain latest hour (hover to see other rain measurements)
** Current wind speed in m/s (hover to see current wind gust speed)